{"data":{"norad_id":59041,"intl_designator":"2024-038U","name":"STARLINK-31240","alt_names":[],"object_type":"PAYLOAD","status":"ACTIVE","operator":null,"country":"US","launch_date":"2024-02-25","launch_site_code":"AFETR","launch_vehicle":null,"mission":null,"orbit_class":"UNKNOWN","rcs_meters":null,"size_class":null,"mass_kg":null,"dimensions":null,"purposes":["comms"],"wikipedia_slug":null,"has_3d_model":false,"image_url":null,"decayed_at":null,"tle_current":{"epoch":"2026-05-25T04:22:00.341760Z","epoch_age_seconds":53298,"freshness":"FRESH","line1":"1 59041U 24038U   26145.18194840  .00001009  00000+0  46210-4 0  9995","line2":"2 59041  43.0036 311.8436 0001622 266.0822  93.9845 15.27579082126496","mean_motion":15.27579082,"eccentricity":0.0001622,"inclination_deg":43.0036,"raan_deg":311.8436,"arg_perigee_deg":266.0822,"mean_anomaly_deg":93.9845,"bstar":4.621e-5,"rev_number":12649,"period_min":94.266805363338,"perigee_km":481.93896003264,"apogee_km":484.16472969391,"semimajor_km":6861.1888448633,"source":"CELESTRAK","updated_at":"2026-05-25T13:38:18.826117Z"}}}